Previsão horária em Aberfoyle

Hoje, 11 Abril, Domingo

Tempo Temperatura Precipitação Vento Pressão Humidade
00:00 0°C° 0.4 mm 1 m/s 741 mmHg 94%
01:00 -1°C° 0 mm 1 m/s 741 mmHg 94%
02:00 -1°C° 0 mm 1 m/s 741 mmHg 94%
03:00 -2°C° 0 mm 1 m/s 741 mmHg 93%
04:00 -2°C° 0 mm 1 m/s 741 mmHg 93%
05:00 -3°C° 0 mm 1 m/s 741 mmHg 92%
06:00 -3°C° 0 mm 1 m/s 742 mmHg 92%
07:00 -1°C° 0 mm 1 m/s 742 mmHg 84%
08:00 +1°C° 0 mm 1 m/s 742 mmHg 76%
09:00 +2°C° 0 mm 1 m/s 742 mmHg 68%
10:00 +3°C° 0.1 mm 1 m/s 742 mmHg 63%
11:00 +4°C° 0.1 mm 1 m/s 742 mmHg 58%
12:00 +4°C° 0.1 mm 2 m/s 742 mmHg 54%
13:00 +4°C° 0.2 mm 2 m/s 742 mmHg 54%
14:00 +4°C° 0.2 mm 2 m/s 742 mmHg 53%
15:00 +4°C° 0.2 mm 2 m/s 742 mmHg 53%
16:00 +3°C° 0.2 mm 2 m/s 742 mmHg 58%
17:00 +3°C° 0.2 mm 2 m/s 742 mmHg 64%
18:00 +2°C° 0.2 mm 2 m/s 742 mmHg 69%
19:00 +1°C° 0 mm 2 m/s 743 mmHg 74%
20:00 0°C° 0 mm 1 m/s 743 mmHg 78%
21:00 -1°C° 0 mm 1 m/s 743 mmHg 83%
22:00 -1°C° 0 mm 1 m/s 743 mmHg 85%
23:00 -2°C° 0 mm 1 m/s 744 mmHg 86%

Amanhã, 12 Abril, Segunda-feira

Tempo Temperatura Precipitação Vento Pressão Humidade
00:00 -2°C° 0 mm 1 m/s 744 mmHg 88%
01:00 -2°C° 0 mm 1 m/s 744 mmHg 89%
02:00 -2°C° 0 mm 1 m/s 744 mmHg 90%
03:00 -2°C° 0 mm 1 m/s 745 mmHg 90%
04:00 -2°C° 0 mm 1 m/s 745 mmHg 90%
05:00 -2°C° 0 mm 1 m/s 745 mmHg 89%
06:00 -2°C° 0 mm 1 m/s 745 mmHg 89%
07:00 -1°C° 0 mm 0 m/s 746 mmHg 81%
08:00 +1°C° 0 mm 0 m/s 746 mmHg 73%
09:00 +3°C° 0 mm 0 m/s 746 mmHg 65%
10:00 +4°C° 0 mm 0 m/s 747 mmHg 59%
11:00 +5°C° 0 mm 0 m/s 747 mmHg 52%
12:00 +6°C° 0 mm 0 m/s 747 mmHg 46%
13:00 +6°C° 0 mm 0 m/s 747 mmHg 44%
14:00 +7°C° 0 mm 1 m/s 747 mmHg 42%
15:00 +8°C° 0 mm 1 m/s 747 mmHg 40%
16:00 +7°C° 0 mm 1 m/s 747 mmHg 47%
17:00 +6°C° 0 mm 1 m/s 747 mmHg 53%
18:00 +6°C° 0 mm 1 m/s 747 mmHg 59%
19:00 +4°C° 0 mm 1 m/s 748 mmHg 64%
20:00 +2°C° 0 mm 1 m/s 748 mmHg 68%
21:00 +1°C° 0 mm 1 m/s 749 mmHg 72%
22:00 +1°C° 0 mm 1 m/s 749 mmHg 74%
23:00 -1°C° 0 mm 0 m/s 749 mmHg 75%

Depois de amanhã, 13 Abril, Terça-feira

Tempo Temperatura Precipitação Vento Pressão Humidade
00:00 -1°C° 0 mm 0 m/s 749 mmHg 77%
01:00 -1°C° 0 mm 0 m/s 749 mmHg 77%
02:00 -1°C° 0 mm 0 m/s 749 mmHg 77%
03:00 -1°C° 0 mm 0 m/s 749 mmHg 78%
04:00 0°C° 0 mm 0 m/s 749 mmHg 77%
05:00 0°C° 0 mm 0 m/s 749 mmHg 77%
06:00 0°C° 0 mm 0 m/s 749 mmHg 76%
07:00 +2°C° 0 mm 1 m/s 749 mmHg 76%
08:00 +3°C° 0 mm 1 m/s 749 mmHg 76%
09:00 +4°C° 0 mm 1 m/s 749 mmHg 76%
10:00 +5°C° 0.2 mm 1 m/s 749 mmHg 79%
11:00 +5°C° 0.2 mm 1 m/s 749 mmHg 83%
12:00 +5°C° 0.2 mm 1 m/s 749 mmHg 86%
13:00 +5°C° 0.3 mm 1 m/s 749 mmHg 88%
14:00 +5°C° 0.3 mm 1 m/s 749 mmHg 90%
15:00 +5°C° 0.3 mm 1 m/s 749 mmHg 92%
16:00 +5°C° 0.1 mm 1 m/s 749 mmHg 92%
17:00 +5°C° 0.1 mm 1 m/s 749 mmHg 92%
18:00 +5°C° 0.1 mm 1 m/s 749 mmHg 92%
19:00 +4°C° 0 mm 1 m/s 749 mmHg 93%
20:00 +4°C° 0 mm 1 m/s 750 mmHg 93%
21:00 +3°C° 0 mm 1 m/s 750 mmHg 94%
22:00 +2°C° 0 mm 1 m/s 750 mmHg 94%
23:00 +2°C° 0 mm 1 m/s 750 mmHg 94%

14 Abril, Quarta-feira

Tempo Temperatura Precipitação Vento Pressão Humidade
00:00 +2°C° 0 mm 1 m/s 750 mmHg 93%
01:00 +2°C° 0 mm 1 m/s 750 mmHg 93%
02:00 +2°C° 0 mm 1 m/s 751 mmHg 92%
03:00 +1°C° 0 mm 0 m/s 751 mmHg 91%
04:00 +1°C° 0 mm 0 m/s 751 mmHg 91%
05:00 +1°C° 0 mm 0 m/s 751 mmHg 91%
06:00 +1°C° 0 mm 0 m/s 751 mmHg 90%
07:00 +3°C° 0 mm 0 m/s 751 mmHg 84%
08:00 +5°C° 0 mm 0 m/s 752 mmHg 78%
09:00 +6°C° 0 mm 0 m/s 752 mmHg 73%
10:00 +8°C° 0 mm 0 m/s 752 mmHg 68%
11:00 +9°C° 0 mm 0 m/s 752 mmHg 64%
12:00 +11°C° 0 mm 1 m/s 752 mmHg 59%
13:00 +11°C° 0 mm 1 m/s 752 mmHg 58%
14:00 +11°C° 0 mm 1 m/s 752 mmHg 57%
15:00 +11°C° 0 mm 1 m/s 752 mmHg 57%
16:00 +10°C° 0 mm 1 m/s 752 mmHg 61%
17:00 +10°C° 0 mm 1 m/s 752 mmHg 66%
18:00 +9°C° 0 mm 1 m/s 752 mmHg 71%
19:00 +8°C° 0 mm 1 m/s 752 mmHg 75%
20:00 +7°C° 0 mm 1 m/s 753 mmHg 79%
21:00 +6°C° 0 mm 1 m/s 753 mmHg 82%
22:00 +6°C° 0 mm 1 m/s 753 mmHg 83%
23:00 +5°C° 0 mm 1 m/s 753 mmHg 84%

15 Abril, Quinta-feira

Tempo Temperatura Precipitação Vento Pressão Humidade
00:00 +5°C° 0 mm 1 m/s 753 mmHg 85%
01:00 +5°C° 0 mm 1 m/s 753 mmHg 86%
02:00 +5°C° 0 mm 1 m/s 753 mmHg 86%
03:00 +5°C° 0 mm 1 m/s 753 mmHg 86%
04:00 +4°C° 0 mm 0 m/s 754 mmHg 87%
05:00 +4°C° 0 mm 0 m/s 754 mmHg 87%
06:00 +4°C° 0 mm 0 m/s 754 mmHg 87%
07:00 +6°C° 0 mm 1 m/s 754 mmHg 82%
08:00 +7°C° 0 mm 1 m/s 754 mmHg 76%
09:00 +8°C° 0 mm 1 m/s 754 mmHg 71%
10:00 +9°C° 0 mm 1 m/s 754 mmHg 65%
11:00 +10°C° 0 mm 1 m/s 754 mmHg 60%
12:00 +10°C° 0 mm 1 m/s 754 mmHg 54%
13:00 +11°C° 0 mm 1 m/s 754 mmHg 54%
14:00 +11°C° 0 mm 1 m/s 754 mmHg 53%
15:00 +11°C° 0 mm 1 m/s 754 mmHg 52%
16:00 +10°C° 0 mm 1 m/s 754 mmHg 56%
17:00 +10°C° 0 mm 1 m/s 754 mmHg 60%
18:00 +9°C° 0 mm 1 m/s 754 mmHg 63%
19:00 +8°C° 0 mm 1 m/s 755 mmHg 70%
20:00 +6°C° 0 mm 1 m/s 755 mmHg 76%
21:00 +4°C° 0 mm 1 m/s 755 mmHg 82%
22:00 +4°C° 0 mm 1 m/s 755 mmHg 84%
23:00 +3°C° 0 mm 1 m/s 755 mmHg 86%

16 Abril, Sexta-feira

Tempo Temperatura Precipitação Vento Pressão Humidade
00:00 +3°C° 0 mm 1 m/s 756 mmHg 88%
01:00 +2°C° 0 mm 1 m/s 756 mmHg 89%
02:00 +2°C° 0 mm 1 m/s 756 mmHg 89%
03:00 +1°C° 0 mm 1 m/s 756 mmHg 90%
04:00 +1°C° 0 mm 1 m/s 756 mmHg 89%
05:00 +1°C° 0 mm 1 m/s 756 mmHg 88%
06:00 +2°C° 0 mm 1 m/s 756 mmHg 87%
07:00 +3°C° 0 mm 1 m/s 756 mmHg 76%
08:00 +5°C° 0 mm 1 m/s 756 mmHg 66%
09:00 +6°C° 0 mm 2 m/s 756 mmHg 55%
10:00 +7°C° 0 mm 2 m/s 756 mmHg 51%
11:00 +8°C° 0 mm 2 m/s 756 mmHg 46%
12:00 +9°C° 0 mm 2 m/s 755 mmHg 42%
13:00 +9°C° 0 mm 3 m/s 755 mmHg 42%
14:00 +10°C° 0 mm 3 m/s 755 mmHg 43%
15:00 +10°C° 0 mm 3 m/s 754 mmHg 44%
16:00 +9°C° 0 mm 3 m/s 754 mmHg 49%
17:00 +8°C° 0 mm 3 m/s 754 mmHg 55%
18:00 +7°C° 0 mm 2 m/s 754 mmHg 60%
19:00 +5°C° 0 mm 2 m/s 754 mmHg 68%
20:00 +4°C° 0 mm 2 m/s 754 mmHg 75%
21:00 +2°C° 0 mm 2 m/s 755 mmHg 82%
22:00 +2°C° 0 mm 1 m/s 754 mmHg 84%
23:00 +2°C° 0 mm 1 m/s 754 mmHg 86%
Mostrar mais

Necessitamos do seu Consentimento

A Meteoprog e os seus Fornecedores de Serviços podem armazenar e aceder a dados pessoais como cookies, identificadores do dispositivo ou outras tecnologias semelhantes existentes no seu dispositivo e processar estes dados para personalizar conteúdos e anúncios, assim como funcionalidades nas redes sociais e análise de tráfego.

  • Armazenar e/ou aceder a informações no seu dispositivo

    Os cookies, identificadores do dispositivo ou outras informações podem ser armazenados ou acedidos no seu dispositivo, para os fins acima indicados.

  • Anúncios e conteúdos personalizados, medição de anúncios e conteúdos, dados sobre o público-alvo e desenvolvimento de produtos

    Os anúncios e os conteúdos podem ser personalizados com base num perfil. Podem ser adicionados dados adicionais para uma maior personalização dos anúncios e dos conteúdos. A eficácia dos anúncios e dos conteúdos pode ser medida. Podem ser obtidas informações sobre o público que visualizou os anúncios e os conteúdos. Estes dados podem ser usados para desenvolver ou melhorar sistemas, softwares ou a experiência do utilizador.

Ao clicar em "Eu concordo”, permitirá o uso de cookies, identificadores do dispositivo e web beacons mencionados ou outras tecnologias semelhantes. As configurações do navegador do seu dispositivo podem ser alteradas.

Para certos fins, podem ser invocados interesses legítimos ao invés de consentimento. Pode ler mais informação sobre este assunto na nossa Política de Privacidade e Cookies.